Location: Grand Lay
(47.3253°N, 0.9468°E)
Time: 18:57:50
(UTC+00:00)

Gbstr 26 Del rocket - Pass Details

Date: 15 April 2026
Orbit: 490 x 1216 km, 51.8° (Epoch: 13 May)

Event Time Altitude Azimuth Distance (km) Brightness Sun altitude
Exits shadow 01:20:04 18° 59° (ENE) 1,274 5.2 -30.0°
Drops below altitude 10° 01:21:07 10° 63° (ENE) 1,687 5.9 -29.9°
Sets 01:23:15 0° 67° (ENE) 2,566 6.9 -29.8°
